Flag for Germany Weather past 2 weeks in Fehmarn (Puttgarden), Schleswig-Holstein, Germany

Now
72 °F

Scattered clouds.


Feels Like: 76 °F
Forecast: 65 / 77 °F
Wind: 7 mph from Southeast

Location: Westermarkelsdorf

Current Time: Jul 2, 2015 at 10:57:23 AM

Latest Report: Jul 2, 2015 at 10:00 AM


Visibility: 4 mi

Pressure: 30.28 "Hg

Humidity: 61%

Dew point: 58 °F

Location of Fehmarn (Puttgarden)Location

Historic Weather in Fehmarn (Puttgarden) — Graph

°F

Fehmarn (Puttgarden) temperature yesterday

Maximum temperature yesterday: 71 °F (at 2:00 PM)
Minimum temperature yesterday: 55 °F (at 2:00 AM)
Average temperature yesterday: 64 °F

Past Weeks' High & Low Weather Summary

 TemperatureHumidityPressure
High72 °F (Jul 2, 10:00 AM)99% (Jun 29, 2:00 AM)30.28 "Hg (Jun 29, 2:00 AM)
Low52 °F (Jun 21, 10:00 PM)51% (Jul 1, 3:00 PM)29.63 "Hg (Jun 23, 1:00 AM)
Average59 °F80%30.00 "Hg
* Reported Jun 17 10:00 AM — Jul 2 10:00 AM, Fehmarn (Puttgarden), Weather by CustomWeather, © 2015

Note: Actual official high and low records may vary slightly from our data, if they occured in-between our weather recording intervals... More about our weather records

Advertising

Fehmarn (Puttgarden) weather history for previous 24 hours

 ConditionsComfort  
Time TempWeatherWind HumidityBarometerVisibility
10:00 AM
Thu, Jul 2
72 °FScattered clouds.7 mph61%30.28 "Hg4 mi
9:00 AM70 °FSunny.6 mph64%30.28 "Hg4 mi
8:00 AM67 °FPassing clouds.6 mph71%30.27 "Hg5 mi
7:00 AM64 °FPassing clouds.5 mph81%30.27 "Hg5 mi
6:00 AM61 °FPassing clouds.3 mph87%30.26 "Hg6 mi
4:00 AM59 °FClear.5 mph89%30.27 "Hg14 mi
3:00 AM60 °FClear.5 mph86%30.27 "Hg14 mi
2:00 AM60 °FPassing clouds.5 mph89%30.27 "Hg12 mi
1:00 AM62 °FClear.6 mph83%30.27 "Hg16 mi
12:00 AM62 °FPassing clouds.6 mph84%30.26 "Hg16 mi
11:00 PM
Wed, Jul 1
64 °FClear.6 mph83%30.25 "Hg16 mi
10:00 PM65 °FPassing clouds.7 mph80%30.24 "Hg18 mi
9:00 PM65 °FScattered clouds.7 mph78%30.23 "Hg19 mi
8:00 PM67 °FPartly sunny.7 mph73%30.23 "Hg12 mi
7:00 PM69 °FScattered clouds.7 mph67%30.23 "Hg11 mi
6:00 PM70 °FScattered clouds.7 mph60%30.24 "Hg9 mi
4:00 PM70 °FSunny.8 mph57%30.26 "Hg6 mi
3:00 PM70 °FPassing clouds.7 mph51%30.27 "Hg6 mi
2:00 PM71 °FSunny.6 mph57%30.27 "Hg6 mi
1:00 PM69 °FPassing clouds.7 mph64%30.27 "Hg5 mi
12:00 PM69 °FPassing clouds.7 mph68%30.28 "Hg8 mi
10:00 AM69 °FScattered clouds.3 mph61%30.28 "Hg11 mi
Weather by CustomWeather, © 2015

See weather overviewHow to use our weather pages